WX0AOK Weather Reports


Display with metric or nautical units.
time (UTC)temp
F
wind
direction
speed
MPH
gust
MPH
rain 1hr
in
rain 24hr
in
rain mn
in
humidity
%
barometer
mb
20260502203502 64 335 2.0 9.0 0.00 0.00 0.00 36 1013.0
20260502203008 64 281 4.0 11.0 0.00 0.00 0.00 38 1013.1
20260502202503 64 290 4.0 13.0 0.00 0.00 0.00 37 1013.2
20260502202009 64 281 4.0 13.0 0.00 0.00 0.00 35 1013.3
20260502201517 64 327 3.0 12.0 0.00 0.00 0.00 37 1013.5
20260502201010 64 231 2.0 12.0 0.00 0.00 0.00 33 1013.5
20260502200506 63 291 4.0 12.0 0.00 0.00 0.00 36 1013.6
20260502200019 63 248 2.0 7.0 0.00 0.00 0.00 35 1013.7
20260502195509 62 295 2.0 11.0 0.00 0.00 0.00 36 1013.9
20260502195006 63 303 5.0 11.0 0.00 0.00 0.00 39 1014.0
20260502194521 63 258 2.0 9.0 0.00 0.00 0.00 35 1014.0
20260502194005 62 207 2.0 15.0 0.00 0.00 0.00 36 1014.1
20260502193512 62 242 5.0 15.0 0.00 0.00 0.00 36 1014.1
20260502193025 62 274 3.0 9.0 0.00 0.00 0.00 34 1014.3
20260502192508 62 296 2.0 6.0 0.00 0.00 0.00 38 1014.4
20260502192010 61 321 2.0 6.0 0.00 0.00 0.00 35 1014.4
20260502191531 61 316 3.0 13.0 0.00 0.00 0.00 35 1014.5
20260502191003 61 276 4.0 13.0 0.00 0.00 0.00 41 1014.7
20260502190507 61 326 5.0 11.0 0.00 0.00 0.00 42 1014.7
20260502190022 61 285 5.0 10.0 0.00 0.00 0.00 37 1014.9
20260502185508 60 307 2.0 6.0 0.00 0.00 0.00 37 1015.0
20260502185009 60 290 3.0 10.0 0.00 0.00 0.00 38 1015.0
20260502184521 60 290 3.0 10.0 0.00 0.00 0.00 38 1015.1
20260502184014 60 286 5.0 9.0 0.00 0.00 0.00 39 1015.3
20260502183507 60 276 2.0 8.0 0.00 0.00 0.00 35 1015.3
20260502183024 60 304 3.0 12.0 0.00 0.00 0.00 39 1015.4
20260502182510 59 349 2.0 12.0 0.00 0.00 0.00 38 1015.6
20260502182013 59 299 2.0 7.0 0.00 0.00 0.00 35 1015.5
20260502181528 59 287 3.0 9.0 0.00 0.00 0.00 38 1015.7
20260502181010 58 311 4.0 11.0 0.00 0.00 0.00 40 1015.9
20260502180509 59 316 5.0 11.0 0.00 0.00 0.00 40 1015.8
20260502170509 56 307 4.0 10.0 0.00 0.00 0.00 41 1016.8
20260502164008 55 280 2.0 7.0 0.00 0.00 0.00 41 1017.0
20260502163507 55 299 3.0 7.0 0.00 0.00 0.00 41 1017.2
20260502163034 55 304 1.0 9.0 0.00 0.00 0.00 43 1017.3
20260502162510 55 269 4.0 9.0 0.00 0.00 0.00 43 1017.3
20260502162011 55 142 2.0 7.0 0.00 0.00 0.00 45 1017.4
20260502161525 54 302 2.0 9.0 0.00 0.00 0.00 44 1017.5
20260502161006 54 283 2.0 9.0 0.00 0.00 0.00 44 1017.5
20260502160511 54 338 5.0 12.0 0.00 0.00 0.00 44 1017.6
20260502152007 52 290 6.0 11.0 0.00 0.00 0.00 49 1018.0
20260502151528 52 333 4.0 9.0 0.00 0.00 0.00 51 1018.0
20260502151008 52 271 4.0 12.0 0.00 0.00 0.00 50 1018.0
20260502150509 51 311 5.0 12.0 0.00 0.00 0.00 52 1018.2
20260502130507 43 228 1.0 4.0 0.00 0.00 0.00 65 1018.6
20260502123512 41 258 0.0 4.0 0.00 0.00 0.00 66 1018.6
20260502123030 40 228 0.0 4.0 0.00 0.00 0.00 66 1018.5
20260502122510 40 262 1.0 5.0 0.00 0.00 0.00 66 1018.5
20260502122010 40 262 0.0 5.0 0.00 0.00 0.00 66 1018.7
20260502121527 39 200 0.0 3.0 0.00 0.00 0.00 66 1018.6
20260502121010 39 276 0.0 3.0 0.00 0.00 0.00 67 1018.6
20260502120506 39 241 0.0 4.0 0.00 0.00 0.00 67 1018.6
20260502115505 38 272 0.0 3.0 0.00 0.00 0.00 69 1018.5
20260502115011 37 255 0.0 3.0 0.00 0.00 0.00 69 1018.5
20260502114531 37 254 0.0 4.0 0.00 0.00 0.00 69 1018.3
20260502114007 37 239 0.0 4.0 0.00 0.00 0.00 69 1018.4
20260502113507 37 187 0.0 4.0 0.00 0.00 0.00 69 1018.5
20260502113029 36 221 0.0 2.0 0.00 0.00 0.00 69 1018.5
20260502112509 36 221 0.0 2.0 0.00 0.00 0.00 69 1018.5
20260502112010 36 233 0.0 2.0 0.00 0.00 0.00 69 1018.4
20260502111526 36 217 0.0 2.0 0.00 0.00 0.00 69 1018.3
20260502111010 36 248 0.0 3.0 0.00 0.00 0.00 69 1018.3
20260502110510 36 232 0.0 3.0 0.00 0.00 0.00 69 1018.3
20260502110026 37 233 0.0 3.0 0.00 0.00 0.00 68 1018.2
20260502105507 37 229 0.0 3.0 0.00 0.00 0.00 68 1018.2
20260502105002 37 233 0.0 3.0 0.00 0.00 0.00 68 1018.2
20260502104511 37 228 0.0 3.0 0.00 0.00 0.00 68 1018.2
20260502104002 37 255 0.0 2.0 0.00 0.00 0.00 67 1018.2
20260502103507 37 252 0.0 2.0 0.00 0.00 0.00 67 1018.2
20260502103004 37 258 0.0 2.0 0.00 0.00 0.00 67 1018.2
20260502102504 37 267 0.0 2.0 0.00 0.00 0.00 66 1018.1
20260502102004 37 220 0.0 3.0 0.00 0.00 0.00 66 1018.2
20260502101508 37 248 0.0 3.0 0.00 0.00 0.00 66 1018.1
20260502101002 37 244 0.0 2.0 0.00 0.00 0.00 65 1018.1
20260502100502 37 250 0.0 2.0 0.00 0.00 0.00 65 1018.1
20260502091516 38 184 0.0 1.0 0.00 0.00 0.00 63 1018.2
20260502091003 38 246 0.0 1.0 0.00 0.00 0.00 62 1018.1
20260502090504 38 246 0.0 2.0 0.00 0.00 0.00 62 1018.1
20260502071520 40 252 0.0 2.0 0.00 0.00 0.00 60 1018.5
20260502071007 40 233 0.0 2.0 0.00 0.00 0.00 59 1018.5
20260502070507 40 258 0.0 1.0 0.00 0.00 0.00 60 1018.6
20260502070018 40 218 0.0 2.0 0.00 0.00 0.00 60 1018.6
20260502065507 40 245 0.0 2.0 0.00 0.00 0.00 61 1018.7
20260502065007 40 275 0.0 2.0 0.00 0.00 0.00 60 1018.7
20260502064537 40 231 0.0 1.0 0.00 0.00 0.00 60 1018.7
20260502064007 40 283 0.0 0.0 0.00 0.00 0.00 59 1018.7
20260502063507 40 283 0.0 1.0 0.00 0.00 0.00 59 1018.8
20260502063019 40 283 0.0 1.0 0.00 0.00 0.00 59 1018.7
20260502062507 40 283 0.0 0.0 0.00 0.00 0.00 58 1018.7
20260502062009 41 283 0.0 1.0 0.00 0.00 0.00 58 1018.7
20260502061519 41 255 0.0 1.0 0.00 0.00 0.00 58 1018.7
20260502061009 41 248 0.0 1.0 0.00 0.00 0.00 58 1018.6
20260502060507 41 237 0.0 1.0 0.00 0.00 0.00 58 1018.6
20260502060030 41 245 0.0 2.0 0.00 0.00 0.00 57 1018.6
20260502055507 41 246 0.0 2.0 0.00 0.00 0.00 57 1018.6
20260502055007 41 217 0.0 0.0 0.00 0.00 0.00 57 1018.6
20260502054526 41 217 0.0 1.0 0.00 0.00 0.00 56 1018.6
20260502054007 41 217 0.0 1.0 0.00 0.00 0.00 55 1018.6
20260502053513 41 217 0.0 0.0 0.00 0.00 0.00 55 1018.6
20260502053021 41 217 0.0 0.0 0.00 0.00 0.00 55 1018.6
20260502052507 41 217 0.0 0.0 0.00 0.00 0.00 55 1018.6
20260502052007 41 217 0.0 0.0 0.00 0.00 0.00 55 1018.6
20260502051516 42 216 0.0 0.0 0.00 0.00 0.00 54 1018.6
20260502051006 42 217 0.0 0.0 0.00 0.00 0.00 55 1018.7
20260502050508 42 240 0.0 1.0 0.00 0.00 0.00 55 1018.7
20260502050021 42 237 0.0 1.0 0.00 0.00 0.00 55 1018.7
20260502045508 42 224 0.0 1.0 0.00 0.00 0.00 55 1018.6
20260502045003 42 210 0.0 0.0 0.00 0.00 0.00 55 1018.6
20260502044507 42 212 0.0 1.0 0.00 0.00 0.00 55 1018.6
20260502044004 42 235 0.0 1.0 0.00 0.00 0.00 54 1018.7
20260502043504 42 239 0.0 1.0 0.00 0.00 0.00 54 1018.7
20260502043008 42 231 0.0 1.0 0.00 0.00 0.00 53 1018.7
20260502042503 43 248 0.0 1.0 0.00 0.00 0.00 53 1018.6
20260502042004 43 237 0.0 1.0 0.00 0.00 0.00 53 1018.6
20260502041512 43 230 0.0 1.0 0.00 0.00 0.00 53 1018.6
20260502041003 43 242 0.0 1.0 0.00 0.00 0.00 52 1018.6
20260502040506 44 239 0.0 1.0 0.00 0.00 0.00 52 1018.6
20260502040022 44 229 0.0 2.0 0.00 0.00 0.00 51 1018.6
20260502035507 44 221 0.0 2.0 0.00 0.00 0.00 51 1018.6
20260502035006 44 238 0.0 2.0 0.00 0.00 0.00 51 1018.5
20260502034524 44 256 0.0 2.0 0.00 0.00 0.00 50 1018.6
20260502034008 44 233 0.0 2.0 0.00 0.00 0.00 50 1018.7
20260502033504 45 226 0.0 1.0 0.00 0.00 0.00 51 1018.6
20260502033004 45 243 0.0 1.0 0.00 0.00 0.00 51 1018.6
20260502032504 45 247 0.0 2.0 0.00 0.00 0.00 52 1018.7
20260502032008 45 237 0.0 2.0 0.00 0.00 0.00 52 1018.7
20260502031508 45 238 0.0 2.0 0.00 0.00 0.00 52 1018.7
20260502031003 45 244 0.0 2.0 0.00 0.00 0.00 52 1018.7
20260502030504 46 238 1.0 2.0 0.00 0.00 0.00 53 1018.7
20260502030016 46 236 0.0 2.0 0.00 0.00 0.00 52 1018.7
20260502025507 46 241 0.0 2.0 0.00 0.00 0.00 51 1018.7
20260502025006 46 241 0.0 2.0 0.00 0.00 0.00 52 1018.6
20260502024519 46 232 0.0 2.0 0.00 0.00 0.00 52 1018.6
20260502024005 46 231 0.0 1.0 0.00 0.00 0.00 53 1018.7
20260502023506 47 219 0.0 1.0 0.00 0.00 0.00 52 1018.6
20260502023022 47 233 0.0 2.0 0.00 0.00 0.00 45 1018.7
20260502022507 47 230 0.0 2.0 0.00 0.00 0.00 42 1018.6
20260502022004 47 248 0.0 2.0 0.00 0.00 0.00 43 1018.6
20260502021503 47 229 0.0 2.0 0.00 0.00 0.00 43 1018.6
20260502021008 48 236 0.0 3.0 0.00 0.00 0.00 43 1018.6
20260502020509 48 210 0.0 3.0 0.00 0.00 0.00 46 1018.6
20260502020033 48 217 0.0 2.0 0.00 0.00 0.00 44 1018.5
20260502015504 48 276 0.0 3.0 0.00 0.00 0.00 46 1018.3
20260502015004 49 269 1.0 3.0 0.00 0.00 0.00 44 1018.3
20260502014516 49 257 1.0 3.0 0.00 0.00 0.00 42 1018.2
20260502014007 49 258 1.0 3.0 0.00 0.00 0.00 39 1018.1
20260502013507 50 269 1.0 3.0 0.00 0.00 0.00 40 1018.1
20260502013021 50 269 1.0 3.0 0.00 0.00 0.00 39 1018.1
20260502012507 50 293 2.0 4.0 0.00 0.00 0.00 40 1018.0
20260502012009 50 288 2.0 5.0 0.00 0.00 0.00 40 1018.1
20260502011522 51 307 2.0 5.0 0.00 0.00 0.00 41 1018.0
20260502011010 51 292 2.0 4.0 0.00 0.00 0.00 41 1018.0
20260502010508 51 290 1.0 6.0 0.00 0.00 0.00 42 1018.0
20260502010017 51 319 3.0 6.0 0.00 0.00 0.00 41 1018.0
20260502005508 52 321 4.0 7.0 0.00 0.00 0.00 42 1017.9
20260502005004 52 322 3.0 11.0 0.00 0.00 0.00 46 1017.9
20260502004524 52 290 4.0 11.0 0.00 0.00 0.00 41 1017.9
20260502004011 52 288 4.0 8.0 0.00 0.00 0.00 41 1017.9
20260502003507 52 316 3.0 7.0 0.00 0.00 0.00 40 1017.9
20260502003023 52 300 3.0 7.0 0.00 0.00 0.00 37 1017.8
20260502002506 53 319 3.0 6.0 0.00 0.00 0.00 42 1017.8
20260502002007 52 307 3.0 6.0 0.00 0.00 0.00 41 1017.9
20260502001524 52 331 4.0 7.0 0.00 0.00 0.00 41 1017.9
20260502001007 52 360 4.0 7.0 0.00 0.00 0.00 46 1017.8
20260502000507 52 1 3.0 7.0 0.00 0.00 0.00 40 1017.8
20260502000027 52 2 2.0 7.0 0.00 0.00 0.00 43 1017.8
20260501235508 52 333 4.0 7.0 0.00 0.00 0.00 40 1017.7
20260501235010 52 323 3.0 10.0 0.00 0.00 0.00 39 1017.8
20260501234511 53 349 5.0 10.0 0.00 0.00 0.00 42 1017.8
20260501234008 53 321 6.0 10.0 0.00 0.00 0.00 44 1017.8
20260501233507 53 285 4.0 10.0 0.00 0.00 0.00 38 1017.8
20260501233030 53 11 4.0 10.0 0.00 0.00 0.00 39 1017.8
20260501232509 54 288 6.0 10.0 0.00 0.00 0.00 40 1017.7
20260501232011 53 65 1.0 7.0 0.00 0.00 0.00 34 1017.6
20260501231528 53 345 1.0 5.0 0.00 0.00 0.00 40 1017.7
20260501231007 53 360 0.0 4.0 0.00 0.00 0.00 38 1017.7
20260501230509 52 360 2.0 6.0 0.00 0.00 0.00 40 1017.8
20260501230028 52 306 1.0 6.0 0.00 0.00 0.00 42 1017.9
20260501225510 51 331 3.0 6.0 0.00 0.00 0.00 43 1017.9
20260501225013 51 311 4.0 8.0 0.00 0.00 0.00 42 1017.9
20260501224525 51 324 6.0 10.0 0.00 0.00 0.00 44 1017.9
20260501224009 51 353 4.0 10.0 0.00 0.00 0.00 41 1017.8
20260501223503 52 339 5.0 9.0 0.00 0.00 0.00 46 1017.9
20260501223010 53 311 6.0 9.0 0.00 0.00 0.00 41 1017.8
20260501222506 53 316 3.0 10.0 0.00 0.00 0.00 37 1017.7
20260501222006 53 299 3.0 10.0 0.00 0.00 0.00 39 1017.9
20260501221518 53 333 6.0 9.0 0.00 0.00 0.00 42 1017.8
20260501221002 53 347 4.0 9.0 0.00 0.00 0.00 43 1017.8
20260501220509 53 316 4.0 8.0 0.00 0.00 0.00 43 1017.9
20260501220034 52 296 5.0 9.0 0.00 0.00 0.00 44 1017.9
20260501215504 53 333 5.0 12.0 0.00 0.00 0.00 41 1017.9
20260501215003 52 321 7.0 12.0 0.00 0.00 0.00 46 1017.9
20260501214508 53 360 3.0 7.0 0.00 0.00 0.00 38 1017.8
20260501214009 53 300 2.0 7.0 0.00 0.00 0.00 41 1017.8
20260501213503 52 331 3.0 7.0 0.00 0.00 0.00 42 1017.8
20260501213011 52 333 4.0 7.0 0.00 0.00 0.00 38 1017.9
20260501212503 51 359 1.0 8.0 0.00 0.00 0.00 39 1017.9
20260501212007 51 295 1.0 8.0 0.00 0.00 0.00 41 1018.0
20260501211516 51 21 1.0 6.0 0.00 0.00 0.00 38 1018.0
20260501211008 50 19 2.0 7.0 0.00 0.00 0.00 37 1018.1
20260501210506 51 331 2.0 8.0 0.00 0.00 0.00 37 1018.2
20260501210022 51 340 3.0 10.0 0.00 0.00 0.00 43 1018.1
20260501205503 51 62 5.0 10.0 0.00 0.00 0.00 38 1018.1
20260501205004 51 309 1.0 9.0 0.00 0.00 0.00 41 1018.2
20260501204508 51 67 4.0 13.0 0.00 0.00 0.00 42 1018.2
20260501204003 51 71 6.0 13.0 0.00 0.00 0.00 46 1018.2